UAL423 KIAH-KDEN

Flight info

Callsign UAL423
Flight time 2h 3m
Altitude 36000
Route STYCK8 DOLEY MRMAC ROLLS HALEN NIIXX4
Aircraft B38M/M-SDE1FGHILORVWXY/HB1

Departure

Time 2026-05-06 18:29
Airport George Bush Intercontinental Airport (KIAH)

Arrival

Time 2026-05-06 20:33
Airport Denver International Airport (KDEN)
Time Latitude Longitude Altitude Speed Heading
2026-05-06 18:10 29.98812 -95.34285 110 ft 0 kts 180°
2026-05-06 18:15 29.98820 -95.34285 108 ft 4 kts 184°
2026-05-06 18:15 29.98846 -95.34279 109 ft 4 kts 203°
2026-05-06 18:16 29.98870 -95.34265 108 ft 4 kts 202°
2026-05-06 18:16 29.98894 -95.34261 109 ft 4 kts 173°
2026-05-06 18:16 29.98917 -95.34271 108 ft 4 kts 135°
2026-05-06 18:16 29.98928 -95.34296 109 ft 4 kts 94°
2026-05-06 18:17 29.98925 -95.34325 109 ft 4 kts 61°
2026-05-06 18:17 29.98909 -95.34341 108 ft 4 kts
2026-05-06 18:17 29.98886 -95.34341 108 ft 1 kts
2026-05-06 18:23 29.98893 -95.34341 108 ft 4 kts
2026-05-06 18:23 29.98952 -95.34341 110 ft 13 kts
2026-05-06 18:23 29.99048 -95.34340 110 ft 12 kts 359°
2026-05-06 18:23 29.99086 -95.34393 110 ft 9 kts 267°
2026-05-06 18:24 29.99085 -95.34460 110 ft 8 kts 269°
2026-05-06 18:24 29.99085 -95.34520 109 ft 8 kts 270°
2026-05-06 18:24 29.99085 -95.34601 109 ft 13 kts 270°
2026-05-06 18:24 29.99085 -95.34739 109 ft 21 kts 270°
2026-05-06 18:25 29.99088 -95.34931 109 ft 26 kts 272°
2026-05-06 18:25 29.99091 -95.35050 109 ft 13 kts 270°
2026-05-06 18:25 29.99091 -95.35159 109 ft 14 kts 269°
2026-05-06 18:25 29.99090 -95.35277 109 ft 15 kts 271°
2026-05-06 18:26 29.99091 -95.35402 109 ft 16 kts 270°
2026-05-06 18:26 29.99081 -95.35535 109 ft 17 kts 267°
2026-05-06 18:26 29.99079 -95.35616 109 ft 3 kts 230°
2026-05-06 18:26 29.99066 -95.35617 108 ft 2 kts 165°
2026-05-06 18:27 29.99031 -95.35600 106 ft 10 kts 153°
2026-05-06 18:27 29.98957 -95.35556 110 ft 13 kts 152°
2026-05-06 18:27 29.98898 -95.35540 109 ft 4 kts 203°
2026-05-06 18:27 29.98891 -95.35547 109 ft 1 kts 230°
2026-05-06 18:28 29.98876 -95.35573 110 ft 9 kts 238°
2026-05-06 18:28 29.98829 -95.35678 108 ft 19 kts 243°
2026-05-06 18:28 29.98722 -95.35748 110 ft 24 kts 156°
2026-05-06 18:28 29.98472 -95.35592 110 ft 75 kts 150°
2026-05-06 18:29 29.97762 -95.35161 109 ft 152 kts 152°
2026-05-06 18:29 29.96652 -95.34524 344 ft 201 kts 154°
2026-05-06 18:29 29.95330 -95.33861 1062 ft 210 kts 167°
2026-05-06 18:29 29.93858 -95.33833 2048 ft 217 kts 194°
2026-05-06 18:30 29.92544 -95.34677 2804 ft 227 kts 225°
2026-05-06 18:30 29.91767 -95.36275 3461 ft 235 kts 252°
2026-05-06 18:30 29.91766 -95.38163 3661 ft 242 kts 282°
2026-05-06 18:30 29.92629 -95.39865 3805 ft 248 kts 309°
2026-05-06 18:31 29.93979 -95.41098 3951 ft 256 kts 326°
2026-05-06 18:31 29.95646 -95.41865 3998 ft 259 kts 340°
2026-05-06 18:31 29.97364 -95.42512 3899 ft 257 kts 338°
2026-05-06 18:31 29.99107 -95.43182 4017 ft 272 kts 338°
2026-05-06 18:32 30.00886 -95.43885 5092 ft 273 kts 338°
2026-05-06 18:32 30.02724 -95.44618 5938 ft 286 kts 337°
2026-05-06 18:32 30.04624 -95.45383 6873 ft 291 kts 337°
2026-05-06 18:32 30.06547 -95.46157 7866 ft 294 kts 336°
2026-05-06 18:33 30.08488 -95.46939 8850 ft 297 kts 336°
2026-05-06 18:33 30.10453 -95.47732 9805 ft 301 kts 336°
2026-05-06 18:33 30.12459 -95.48543 10483 ft 312 kts 336°
2026-05-06 18:33 30.14540 -95.49386 11022 ft 328 kts 336°
2026-05-06 18:34 30.16735 -95.50275 11667 ft 338 kts 335°
2026-05-06 18:34 30.18963 -95.51177 12499 ft 341 kts 335°
2026-05-06 18:34 30.21228 -95.52092 13256 ft 347 kts 334°
2026-05-06 18:34 30.23526 -95.53021 14074 ft 352 kts 334°
2026-05-06 18:35 30.25851 -95.53962 14794 ft 355 kts 334°
2026-05-06 18:35 30.28194 -95.54910 15541 ft 358 kts 333°
2026-05-06 18:35 30.30549 -95.55864 16286 ft 360 kts 333°
2026-05-06 18:35 30.32925 -95.56826 16971 ft 363 kts 332°
2026-05-06 18:36 30.35321 -95.57797 17625 ft 367 kts 332°
2026-05-06 18:36 30.37742 -95.58778 18291 ft 370 kts 332°
2026-05-06 18:36 30.40184 -95.59769 18858 ft 373 kts 332°
2026-05-06 18:36 30.42640 -95.60765 19448 ft 375 kts 331°
2026-05-06 18:37 30.45114 -95.61769 20025 ft 378 kts 331°
2026-05-06 18:37 30.46766 -95.62440 20403 ft 380 kts 331°
2026-05-06 18:37 30.50120 -95.63804 21082 ft 383 kts 331°
2026-05-06 18:37 30.52648 -95.64833 21630 ft 386 kts 330°
2026-05-06 18:38 30.55075 -95.66089 22164 ft 382 kts 324°
2026-05-06 18:38 30.56677 -95.66969 22503 ft 385 kts 325°
2026-05-06 18:38 30.59910 -95.68717 23234 ft 389 kts 325°
2026-05-06 18:38 30.62374 -95.70035 23691 ft 392 kts 325°
2026-05-06 18:39 30.64859 -95.71360 24153 ft 394 kts 325°
2026-05-06 18:39 30.67366 -95.72694 24531 ft 398 kts 325°
2026-05-06 18:39 30.69889 -95.74038 25021 ft 400 kts 325°
2026-05-06 18:40 30.74988 -95.76756 25925 ft 406 kts 324°
2026-05-06 18:40 30.77561 -95.78128 26387 ft 407 kts 324°
2026-05-06 18:40 30.80147 -95.79509 26755 ft 410 kts 324°
2026-05-06 18:40 30.82746 -95.80896 27178 ft 412 kts 324°
2026-05-06 18:41 30.85362 -95.82295 27602 ft 414 kts 324°
2026-05-06 18:41 30.87989 -95.83699 27996 ft 416 kts 324°
2026-05-06 18:41 30.90626 -95.85110 28376 ft 419 kts 324°
2026-05-06 18:41 30.93280 -95.86531 28755 ft 421 kts 324°
2026-05-06 18:42 30.95915 -95.87942 29138 ft 423 kts 324°
2026-05-06 18:42 30.98593 -95.89377 29508 ft 425 kts 323°
2026-05-06 18:42 31.01292 -95.90825 29867 ft 427 kts 323°
2026-05-06 18:42 31.04002 -95.92279 30169 ft 429 kts 323°
2026-05-06 18:43 31.05802 -95.93246 30393 ft 430 kts 323°
2026-05-06 18:43 31.08533 -95.94713 30706 ft 431 kts 323°
2026-05-06 18:43 31.11264 -95.96180 31057 ft 433 kts 324°
2026-05-06 18:43 31.14126 -95.97438 31395 ft 443 kts 329°
2026-05-06 18:44 31.17050 -95.98586 31740 ft 444 kts 329°
2026-05-06 18:44 31.19990 -95.99730 32024 ft 446 kts 330°
2026-05-06 18:44 31.22936 -96.00873 32334 ft 447 kts 330°
2026-05-06 18:44 31.25894 -96.02020 32618 ft 449 kts 330°
2026-05-06 18:45 31.28863 -96.03172 32918 ft 450 kts 330°
2026-05-06 18:45 31.31846 -96.04330 33195 ft 452 kts 330°
2026-05-06 18:45 31.34834 -96.05490 33556 ft 451 kts 330°
2026-05-06 18:45 31.37809 -96.06646 33937 ft 450 kts 329°
2026-05-06 18:46 31.40743 -96.07787 34320 ft 449 kts 329°
2026-05-06 18:46 31.43703 -96.08940 34654 ft 448 kts 329°
2026-05-06 18:46 31.46661 -96.10092 34943 ft 447 kts 329°
2026-05-06 18:46 31.49620 -96.11245 35252 ft 446 kts 329°
2026-05-06 18:47 31.52566 -96.12393 35564 ft 445 kts 329°
2026-05-06 18:47 31.55503 -96.13540 35815 ft 445 kts 329°
2026-05-06 18:47 31.58443 -96.14687 35866 ft 445 kts 329°
2026-05-06 18:48 31.64277 -96.16968 35905 ft 441 kts 328°
2026-05-06 18:48 31.70108 -96.19250 35913 ft 442 kts 328°
2026-05-06 18:49 31.75944 -96.21537 35917 ft 442 kts 328°
2026-05-06 18:49 31.81778 -96.23826 35926 ft 442 kts 328°
2026-05-06 18:50 31.87612 -96.26119 35936 ft 442 kts 328°
2026-05-06 18:50 31.93444 -96.28414 35986 ft 442 kts 328°
2026-05-06 18:51 31.99291 -96.30717 35953 ft 441 kts 328°
2026-05-06 18:51 32.05119 -96.33016 35960 ft 442 kts 328°
2026-05-06 18:52 32.10914 -96.35306 35959 ft 442 kts 328°
2026-05-06 18:52 32.16756 -96.37616 35962 ft 442 kts 328°
2026-05-06 18:52 32.19588 -96.38899 35977 ft 427 kts 319°
2026-05-06 18:53 32.22188 -96.40545 35970 ft 424 kts 319°
2026-05-06 18:53 32.27408 -96.43813 35956 ft 424 kts 319°
2026-05-06 18:54 32.32631 -96.47102 35945 ft 425 kts 319°
2026-05-06 18:54 32.37843 -96.50389 35972 ft 427 kts 319°
2026-05-06 18:55 32.43088 -96.53701 35967 ft 427 kts 319°
2026-05-06 18:55 32.48347 -96.57028 35989 ft 431 kts 317°
2026-05-06 18:56 32.53659 -96.60391 35989 ft 433 kts 317°
2026-05-06 18:56 32.58976 -96.63762 35995 ft 433 kts 317°
2026-05-06 18:57 32.64289 -96.67136 36000 ft 433 kts 317°
2026-05-06 18:57 32.69561 -96.70489 36022 ft 433 kts 317°
2026-05-06 18:58 32.74870 -96.73868 35990 ft 432 kts 316°
2026-05-06 18:58 32.80163 -96.77243 36030 ft 432 kts 316°
2026-05-06 18:59 32.85461 -96.80626 36020 ft 432 kts 316°
2026-05-06 18:59 32.90754 -96.84009 36056 ft 432 kts 316°
2026-05-06 19:00 32.96045 -96.87396 36048 ft 430 kts 316°
2026-05-06 19:00 33.01305 -96.90768 36057 ft 428 kts 315°
2026-05-06 19:01 33.06551 -96.94136 36042 ft 429 kts 315°
2026-05-06 19:01 33.11800 -96.97510 36032 ft 428 kts 315°
2026-05-06 19:02 33.17015 -97.00867 36029 ft 428 kts 315°
2026-05-06 19:02 33.22272 -97.04255 36026 ft 428 kts 315°
2026-05-06 19:03 33.27517 -97.07641 36028 ft 428 kts 315°
2026-05-06 19:03 33.32764 -97.11032 36032 ft 428 kts 315°
2026-05-06 19:04 33.38003 -97.14423 36032 ft 428 kts 315°
2026-05-06 19:04 33.43236 -97.17814 36047 ft 428 kts 315°
2026-05-06 19:05 33.48442 -97.21193 36096 ft 428 kts 315°
2026-05-06 19:05 33.53650 -97.24578 36046 ft 424 kts 315°
2026-05-06 19:06 33.58850 -97.27962 36048 ft 425 kts 315°
2026-05-06 19:06 33.64058 -97.31356 36052 ft 425 kts 315°
2026-05-06 19:07 33.69257 -97.34749 36051 ft 425 kts 315°
2026-05-06 19:07 33.74455 -97.38145 36110 ft 424 kts 315°
2026-05-06 19:08 33.79606 -97.41517 36055 ft 420 kts 314°
2026-05-06 19:08 33.84750 -97.44888 36058 ft 421 kts 314°
2026-05-06 19:09 33.89896 -97.48265 36055 ft 421 kts 314°
2026-05-06 19:09 33.95005 -97.51623 36055 ft 421 kts 314°
2026-05-06 19:10 34.00148 -97.55007 36095 ft 421 kts 314°
2026-05-06 19:10 34.05282 -97.58390 36067 ft 420 kts 314°
2026-05-06 19:11 34.10426 -97.61785 36069 ft 422 kts 314°
2026-05-06 19:11 34.15579 -97.65190 36063 ft 422 kts 314°
2026-05-06 19:12 34.20736 -97.68603 36059 ft 422 kts 314°
2026-05-06 19:12 34.25852 -97.71992 36092 ft 422 kts 314°
2026-05-06 19:13 34.30995 -97.75405 36061 ft 421 kts 314°
2026-05-06 19:13 34.36140 -97.78824 36066 ft 421 kts 314°
2026-05-06 19:14 34.41279 -97.82245 36071 ft 421 kts 314°
2026-05-06 19:14 34.46387 -97.85649 36063 ft 421 kts 314°
2026-05-06 19:15 34.51522 -97.89075 36080 ft 420 kts 313°
2026-05-06 19:15 34.56636 -97.92493 36071 ft 420 kts 313°
2026-05-06 19:16 34.61764 -97.95924 36065 ft 420 kts 313°
2026-05-06 19:16 34.66897 -97.99363 36068 ft 421 kts 313°
2026-05-06 19:17 34.72034 -98.02809 36070 ft 421 kts 313°
2026-05-06 19:17 34.77134 -98.06236 36073 ft 420 kts 313°
2026-05-06 19:18 34.82231 -98.09685 36085 ft 415 kts 310°
2026-05-06 19:18 34.84346 -98.11811 36078 ft 375 kts 294°
2026-05-06 19:18 34.86055 -98.14200 36079 ft 376 kts 294°
2026-05-06 19:19 34.89417 -98.19050 36076 ft 373 kts 293°
2026-05-06 19:19 34.92689 -98.23950 36062 ft 372 kts 292°
2026-05-06 19:20 34.95927 -98.28862 36062 ft 372 kts 292°
2026-05-06 19:20 34.99152 -98.33774 36065 ft 369 kts 292°
2026-05-06 19:21 35.02355 -98.38660 36066 ft 368 kts 292°
2026-05-06 19:21 35.05533 -98.43516 36061 ft 369 kts 292°
2026-05-06 19:22 35.08738 -98.48418 36073 ft 369 kts 292°
2026-05-06 19:22 35.11929 -98.53307 36084 ft 368 kts 292°
2026-05-06 19:23 35.15124 -98.58209 36094 ft 368 kts 292°
2026-05-06 19:23 35.18312 -98.63107 36093 ft 368 kts 292°
2026-05-06 19:24 35.21493 -98.68000 36124 ft 367 kts 292°
2026-05-06 19:24 35.24653 -98.72868 36122 ft 365 kts 292°
2026-05-06 19:25 35.27813 -98.77742 36110 ft 366 kts 292°
2026-05-06 19:25 35.30952 -98.82592 36095 ft 366 kts 292°
2026-05-06 19:26 35.34111 -98.87480 36096 ft 365 kts 292°
2026-05-06 19:26 35.37269 -98.92372 36097 ft 365 kts 291°
2026-05-06 19:27 35.40421 -98.97262 36098 ft 365 kts 291°
2026-05-06 19:27 35.43039 -99.01329 36139 ft 365 kts 291°
2026-05-06 19:28 35.46682 -99.06996 36106 ft 364 kts 291°
2026-05-06 19:28 35.49311 -99.11091 36103 ft 365 kts 291°
2026-05-06 19:29 35.52433 -99.15961 36106 ft 365 kts 291°
2026-05-06 19:29 35.55572 -99.20864 36103 ft 365 kts 291°
2026-05-06 19:30 35.58705 -99.25764 36107 ft 365 kts 291°
2026-05-06 19:30 35.61835 -99.30668 36107 ft 364 kts 291°
2026-05-06 19:31 35.64963 -99.35573 36105 ft 364 kts 291°
2026-05-06 19:31 35.69652 -99.42937 36104 ft 364 kts 291°
2026-05-06 19:32 35.72897 -99.47782 36116 ft 378 kts 298°
2026-05-06 19:32 35.76632 -99.52343 36117 ft 379 kts 297°
2026-05-06 19:33 35.80382 -99.56909 36115 ft 379 kts 298°
2026-05-06 19:33 35.84111 -99.61443 36117 ft 379 kts 298°
2026-05-06 19:34 35.87862 -99.66012 36150 ft 379 kts 297°
2026-05-06 19:34 35.91594 -99.70565 36116 ft 377 kts 297°
2026-05-06 19:35 35.95325 -99.75122 36121 ft 377 kts 297°
2026-05-06 19:35 35.99057 -99.79687 36130 ft 377 kts 297°
2026-05-06 19:36 36.02786 -99.84253 36158 ft 377 kts 297°
2026-05-06 19:36 36.06505 -99.88815 36136 ft 376 kts 297°
2026-05-06 19:37 36.10226 -99.93385 36182 ft 376 kts 297°
2026-05-06 19:37 36.13901 -99.97905 36141 ft 375 kts 297°
2026-05-06 19:38 36.17625 -100.02493 36144 ft 375 kts 297°
2026-05-06 19:38 36.21295 -100.07020 36144 ft 375 kts 297°
2026-05-06 19:39 36.24987 -100.11580 36143 ft 375 kts 297°
2026-05-06 19:39 36.28681 -100.16150 36138 ft 375 kts 297°
2026-05-06 19:40 36.32366 -100.20715 36195 ft 375 kts 298°
2026-05-06 19:40 36.36076 -100.25316 36132 ft 378 kts 298°
2026-05-06 19:41 36.39791 -100.29935 36137 ft 378 kts 297°
2026-05-06 19:41 36.43481 -100.34526 36140 ft 378 kts 297°
2026-05-06 19:42 36.47200 -100.39159 36139 ft 378 kts 297°
2026-05-06 19:42 36.50909 -100.43787 36138 ft 378 kts 297°
2026-05-06 19:43 36.54621 -100.48428 36163 ft 380 kts 298°
2026-05-06 19:43 36.58362 -100.53107 36160 ft 382 kts 298°
2026-05-06 19:44 36.62109 -100.57802 36162 ft 382 kts 298°
2026-05-06 19:44 36.65865 -100.62518 36149 ft 388 kts 299°
2026-05-06 19:45 36.69670 -100.67296 36157 ft 387 kts 299°
2026-05-06 19:45 36.73467 -100.72075 36159 ft 388 kts 299°
2026-05-06 19:46 36.77271 -100.76876 36172 ft 391 kts 300°
2026-05-06 19:46 36.81088 -100.81689 36169 ft 393 kts 300°
2026-05-06 19:47 36.84932 -100.86550 36174 ft 392 kts 300°
2026-05-06 19:47 36.88771 -100.91410 36178 ft 393 kts 300°
2026-05-06 19:48 36.92578 -100.96237 36184 ft 392 kts 300°
2026-05-06 19:48 36.96410 -101.01105 36240 ft 392 kts 300°
2026-05-06 19:49 37.00277 -101.06029 36181 ft 400 kts 301°
2026-05-06 19:49 37.04180 -101.10997 36182 ft 400 kts 301°
2026-05-06 19:50 37.08078 -101.15971 36178 ft 400 kts 301°
2026-05-06 19:50 37.11972 -101.20947 36177 ft 400 kts 301°
2026-05-06 19:51 37.15863 -101.25927 36183 ft 400 kts 301°
2026-05-06 19:51 37.19726 -101.30884 36210 ft 402 kts 303°
2026-05-06 19:52 37.23667 -101.35941 36187 ft 406 kts 303°
2026-05-06 19:52 37.27609 -101.41010 36159 ft 405 kts 303°
2026-05-06 19:53 37.31554 -101.46092 36157 ft 405 kts 303°
2026-05-06 19:53 37.35488 -101.51167 36159 ft 405 kts 303°
2026-05-06 19:54 37.39426 -101.56257 36194 ft 406 kts 304°
2026-05-06 19:54 37.43386 -101.61382 36160 ft 410 kts 304°
2026-05-06 19:55 37.47328 -101.66492 36165 ft 409 kts 304°
2026-05-06 19:55 37.51304 -101.71655 36165 ft 411 kts 304°
2026-05-06 19:56 37.55282 -101.76829 36163 ft 411 kts 304°
2026-05-06 19:56 37.59259 -101.82010 36166 ft 411 kts 304°
2026-05-06 19:57 37.63243 -101.87210 36166 ft 412 kts 305°
2026-05-06 19:57 37.67203 -101.92382 36159 ft 412 kts 305°
2026-05-06 19:58 37.71212 -101.97629 36158 ft 412 kts 305°
2026-05-06 19:58 37.75171 -102.02818 36156 ft 412 kts 305°
2026-05-06 19:59 37.79146 -102.08037 36160 ft 411 kts 305°
2026-05-06 19:59 37.83100 -102.13258 36163 ft 410 kts 304°
2026-05-06 20:00 37.86991 -102.18537 36169 ft 410 kts 304°
2026-05-06 20:00 37.90896 -102.23816 36168 ft 410 kts 304°
2026-05-06 20:01 37.94792 -102.29093 36168 ft 410 kts 304°
2026-05-06 20:01 37.98686 -102.34377 36177 ft 410 kts 304°
2026-05-06 20:02 38.02578 -102.39666 36196 ft 410 kts 305°
2026-05-06 20:02 38.06441 -102.44925 36191 ft 412 kts 305°
2026-05-06 20:03 38.10342 -102.50244 36194 ft 412 kts 305°
2026-05-06 20:03 38.14246 -102.55575 36191 ft 412 kts 305°
2026-05-06 20:04 38.18140 -102.60903 36192 ft 411 kts 305°
2026-05-06 20:04 38.22032 -102.66240 36205 ft 412 kts 305°
2026-05-06 20:05 38.25931 -102.71595 36188 ft 413 kts 305°
2026-05-06 20:05 38.29831 -102.76962 36180 ft 413 kts 305°
2026-05-06 20:06 38.33727 -102.82333 36180 ft 414 kts 306°
2026-05-06 20:06 38.37634 -102.87726 36173 ft 414 kts 306°
2026-05-06 20:07 38.41536 -102.93126 36193 ft 414 kts 306°
2026-05-06 20:07 38.45413 -102.98495 36171 ft 414 kts 306°
2026-05-06 20:08 38.49313 -103.03907 36167 ft 414 kts 306°
2026-05-06 20:08 38.53206 -103.09320 36164 ft 414 kts 306°
2026-05-06 20:09 38.57097 -103.14740 36140 ft 414 kts 307°
2026-05-06 20:09 38.60991 -103.20172 36186 ft 414 kts 307°
2026-05-06 20:10 38.64881 -103.25606 36164 ft 410 kts 307°
2026-05-06 20:10 38.66770 -103.28250 36043 ft 397 kts 307°
2026-05-06 20:10 38.68619 -103.30839 35640 ft 392 kts 307°
2026-05-06 20:11 38.70454 -103.33411 35159 ft 390 kts 307°
2026-05-06 20:11 38.72276 -103.35967 34709 ft 387 kts 307°
2026-05-06 20:11 38.74064 -103.38477 34266 ft 385 kts 307°
2026-05-06 20:11 38.75861 -103.41002 33754 ft 382 kts 306°
2026-05-06 20:12 38.77668 -103.43542 33267 ft 379 kts 306°
2026-05-06 20:12 38.79436 -103.46029 32850 ft 375 kts 306°
2026-05-06 20:12 38.81162 -103.48462 32438 ft 372 kts 307°
2026-05-06 20:12 38.82900 -103.50917 31944 ft 371 kts 307°
2026-05-06 20:13 38.84625 -103.53356 31508 ft 368 kts 307°
2026-05-06 20:13 38.86335 -103.55776 31131 ft 364 kts 307°
2026-05-06 20:13 38.88023 -103.58166 30750 ft 360 kts 307°
2026-05-06 20:13 38.89706 -103.60551 30200 ft 361 kts 306°
2026-05-06 20:14 38.91415 -103.62976 29480 ft 373 kts 307°
2026-05-06 20:14 38.93185 -103.65490 28839 ft 385 kts 307°
2026-05-06 20:14 38.94992 -103.68054 28275 ft 388 kts 307°
2026-05-06 20:14 38.96809 -103.70635 27693 ft 389 kts 307°
2026-05-06 20:15 38.98621 -103.73212 27086 ft 387 kts 307°
2026-05-06 20:15 38.99814 -103.74911 26703 ft 386 kts 307°
2026-05-06 20:15 39.02225 -103.78347 25784 ft 387 kts 307°
2026-05-06 20:15 39.03422 -103.80053 25310 ft 387 kts 307°
2026-05-06 20:16 39.05194 -103.82581 24737 ft 374 kts 307°
2026-05-06 20:16 39.06911 -103.85032 24165 ft 363 kts 306°
2026-05-06 20:16 39.08598 -103.87444 23563 ft 363 kts 306°
2026-05-06 20:16 39.10294 -103.89871 22858 ft 365 kts 307°
2026-05-06 20:17 39.11989 -103.92297 22237 ft 361 kts 307°
2026-05-06 20:17 39.13639 -103.94688 21768 ft 354 kts 307°
2026-05-06 20:17 39.15277 -103.97065 21397 ft 355 kts 307°
2026-05-06 20:17 39.17051 -103.99639 20976 ft 355 kts 307°
2026-05-06 20:18 39.18688 -104.02016 20580 ft 353 kts 307°
2026-05-06 20:18 39.20310 -104.04372 20161 ft 348 kts 308°
2026-05-06 20:18 39.21903 -104.06688 19768 ft 341 kts 308°
2026-05-06 20:18 39.23448 -104.08936 19385 ft 335 kts 308°
2026-05-06 20:19 39.24979 -104.11165 18991 ft 329 kts 308°
2026-05-06 20:19 39.26484 -104.13359 18607 ft 323 kts 308°
2026-05-06 20:19 39.27963 -104.15515 18189 ft 318 kts 308°
2026-05-06 20:19 39.29390 -104.17656 17765 ft 311 kts 302°
2026-05-06 20:20 39.30241 -104.20147 17359 ft 301 kts 281°
2026-05-06 20:20 39.30467 -104.22772 17089 ft 299 kts 267°
2026-05-06 20:20 39.30108 -104.25394 17088 ft 293 kts 256°
2026-05-06 20:20 39.29794 -104.27950 16562 ft 290 kts 275°
2026-05-06 20:21 39.30406 -104.30422 15990 ft 292 kts 295°
2026-05-06 20:21 39.31205 -104.32795 15524 ft 290 kts 290°
2026-05-06 20:21 39.31909 -104.35221 15119 ft 286 kts 289°
2026-05-06 20:21 39.32559 -104.37633 14779 ft 282 kts 288°
2026-05-06 20:22 39.33166 -104.39999 14539 ft 273 kts 288°
2026-05-06 20:22 39.33742 -104.42299 14345 ft 264 kts 288°
2026-05-06 20:22 39.34242 -104.44534 14141 ft 258 kts 282°
2026-05-06 20:22 39.34299 -104.46876 13876 ft 265 kts 264°
2026-05-06 20:23 39.34229 -104.49246 13622 ft 262 kts 281°
2026-05-06 20:23 39.34775 -104.51458 13292 ft 255 kts 289°
2026-05-06 20:23 39.35273 -104.53601 13150 ft 244 kts 287°
2026-05-06 20:23 39.35754 -104.55679 12844 ft 240 kts 287°
2026-05-06 20:24 39.36238 -104.57749 12484 ft 241 kts 287°
2026-05-06 20:24 39.36853 -104.59762 12238 ft 241 kts 300°
2026-05-06 20:24 39.37719 -104.61603 12217 ft 242 kts 301°
2026-05-06 20:24 39.38629 -104.63409 12187 ft 243 kts 310°
2026-05-06 20:25 39.39970 -104.64686 12191 ft 241 kts 332°
2026-05-06 20:25 39.41470 -104.65697 12248 ft 244 kts 330°
2026-05-06 20:25 39.43051 -104.66474 12168 ft 244 kts 352°
2026-05-06 20:25 39.44745 -104.66494 12246 ft 245 kts 358°
2026-05-06 20:26 39.46458 -104.66485 12236 ft 246 kts 358°
2026-05-06 20:26 39.48170 -104.66471 12207 ft 246 kts 358°
2026-05-06 20:26 39.49872 -104.66455 12047 ft 245 kts 358°
2026-05-06 20:26 39.51594 -104.66437 11698 ft 249 kts 359°
2026-05-06 20:27 39.53338 -104.66418 11320 ft 251 kts 359°
2026-05-06 20:27 39.55088 -104.66398 10953 ft 253 kts 359°
2026-05-06 20:27 39.56850 -104.66378 10615 ft 254 kts 359°
2026-05-06 20:27 39.58616 -104.66357 10288 ft 254 kts 359°
2026-05-06 20:28 39.60390 -104.66337 9915 ft 256 kts 359°
2026-05-06 20:28 39.62159 -104.66309 9574 ft 256 kts 360°
2026-05-06 20:28 39.63899 -104.66275 9352 ft 245 kts 359°
2026-05-06 20:28 39.65578 -104.66252 8994 ft 244 kts 359°
2026-05-06 20:29 39.67272 -104.66232 8640 ft 242 kts 359°
2026-05-06 20:29 39.68930 -104.66215 8312 ft 236 kts 359°
2026-05-06 20:29 39.70567 -104.66196 7985 ft 235 kts 359°
2026-05-06 20:29 39.72184 -104.66177 7670 ft 225 kts 359°
2026-05-06 20:30 39.73665 -104.66156 7394 ft 200 kts 359°
2026-05-06 20:30 39.76126 -104.66122 6913 ft 159 kts 359°
2026-05-06 20:30 39.77226 -104.66112 6716 ft 157 kts 359°
2026-05-06 20:31 39.78317 -104.66101 6489 ft 157 kts 359°
2026-05-06 20:31 39.79408 -104.66100 6217 ft 157 kts 358°
2026-05-06 20:31 39.80497 -104.66090 5982 ft 156 kts 360°
2026-05-06 20:31 39.81579 -104.66069 5774 ft 155 kts 359°
2026-05-06 20:32 39.82654 -104.66062 5521 ft 155 kts
2026-05-06 20:32 39.83648 -104.66047 5424 ft 119 kts
2026-05-06 20:32 39.84252 -104.66038 5413 ft 59 kts
2026-05-06 20:32 39.84612 -104.66035 5409 ft 54 kts 356°
2026-05-06 20:33 39.84913 -104.66163 5402 ft 25 kts 330°
2026-05-06 20:33 39.85018 -104.66227 5402 ft 13 kts 342°
2026-05-06 20:33 39.85143 -104.66243 5396 ft 24 kts 357°
2026-05-06 20:33 39.85209 -104.66389 5396 ft 26 kts 269°
2026-05-06 20:34 39.85233 -104.66672 5389 ft 28 kts 265°
2026-05-06 20:34 39.85234 -104.66949 5389 ft 27 kts 270°
2026-05-06 20:34 39.85261 -104.67056 5389 ft 6 kts 340°
2026-05-06 20:34 39.85303 -104.67052 5389 ft 7 kts
2026-05-06 20:35 39.85330 -104.67052 5389 ft 0 kts 360°
2026-05-06 20:35 39.85331 -104.67052 5389 ft 0 kts 360°